TimeEDT,TemperatureF,Dew PointF,Humidity,Sea Level PressureIn,VisibilityMPH,Wind Direction,Wind SpeedMPH,Gust SpeedMPH,PrecipitationIn,Events,Conditions,WindDirDegrees,DateUTC
12:55 AM,77.0,69.1,76,29.75,10.0,WNW,5.8,-,N/A,,Mostly Cloudy,300,2013-07-20 04:55:00
1:55 AM,75.0,69.1,82,29.76,10.0,NNW,5.8,-,N/A,,Clear,330,2013-07-20 05:55:00
2:55 AM,75.0,66.9,76,29.77,10.0,North,8.1,-,N/A,,Clear,360,2013-07-20 06:55:00
3:55 AM,73.0,64.9,76,29.78,10.0,NE,6.9,-,N/A,,Clear,50,2013-07-20 07:55:00
4:55 AM,71.1,64.0,78,29.79,10.0,ENE,3.5,-,N/A,,Partly Cloudy,70,2013-07-20 08:55:00
5:55 AM,71.1,64.0,78,29.80,10.0,Calm,Calm,-,N/A,,Mostly Cloudy,0,2013-07-20 09:55:00
6:55 AM,68.0,64.0,87,29.83,10.0,Calm,Calm,-,N/A,,Partly Cloudy,0,2013-07-20 10:55:00
7:55 AM,72.0,64.0,76,29.84,10.0,Calm,Calm,-,N/A,,Clear,0,2013-07-20 11:55:00
8:55 AM,77.0,57.9,52,29.86,10.0,ESE,3.5,-,N/A,,Partly Cloudy,110,2013-07-20 12:55:00
9:55 AM,81.0,55.9,42,29.86,10.0,Calm,Calm,-,N/A,,Clear,0,2013-07-20 13:55:00
10:55 AM,84.0,55.0,37,29.86,10.0,WNW,4.6,-,N/A,,Partly Cloudy,300,2013-07-20 14:55:00
11:55 AM,84.0,57.0,40,29.88,10.0,West,9.2,-,N/A,,Scattered Clouds,270,2013-07-20 15:55:00
12:55 PM,82.0,61.0,49,29.89,10.0,WSW,10.4,-,N/A,,Scattered Clouds,240,2013-07-20 16:55:00
1:55 PM,82.0,63.0,52,29.89,10.0,West,13.8,-,N/A,,Scattered Clouds,270,2013-07-20 17:55:00
2:55 PM,82.0,64.0,54,29.89,10.0,West,15.0,20.7,N/A,,Mostly Cloudy,280,2013-07-20 18:55:00
3:55 PM,82.9,61.0,47,29.89,10.0,West,11.5,-,N/A,,Scattered Clouds,280,2013-07-20 19:55:00
4:55 PM,82.9,57.9,42,29.88,10.0,WNW,9.2,-,N/A,,Scattered Clouds,300,2013-07-20 20:55:00
5:55 PM,84.0,55.9,38,29.88,10.0,NNW,9.2,-,N/A,,Scattered Clouds,330,2013-07-20 21:55:00
6:55 PM,82.0,51.1,34,29.88,10.0,NNW,11.5,-,N/A,,Scattered Clouds,340,2013-07-20 22:55:00
7:55 PM,80.1,51.1,36,29.89,10.0,NNE,9.2,-,N/A,,Scattered Clouds,20,2013-07-20 23:55:00
8:55 PM,75.9,51.1,42,29.91,10.0,North,6.9,-,N/A,,Scattered Clouds,360,2013-07-21 00:55:00
9:55 PM,73.0,52.0,48,29.94,10.0,North,6.9,-,N/A,,Partly Cloudy,360,2013-07-21 01:55:00
10:55 PM,70.0,51.1,51,29.95,10.0,North,9.2,-,N/A,,Partly Cloudy,10,2013-07-21 02:55:00
11:55 PM,70.0,48.0,46,29.97,10.0,NNE,8.1,-,N/A,,Clear,30,2013-07-21 03:55:00